Tracking 30923 objects as of 1-Jul-2025
HD Live streaming from Space Station
objects crossing your sky now

STARLINK-2713

Track STARLINK-2713 now!
10-day predictions
STARLINK-2713 is classified as:


NORAD ID: 48602
Int'l Code: 2021-041BB
Perigee: 553.5 km
Apogee: 555.3 km
Inclination: 53.1 °
Period: 95.6 minutes
Semi major axis: 6925 km
RCS: Unknown
Launch date: May 15, 2021
Source: United States (US)
Launch site: AIR FORCE EASTERN TEST RANGE (AFETR)
Your satellite tracking list
Your tracking list is empty




NASA's NSSDC Master Catalog

Two Line Element Set (TLE):
1 48602U 21041BB  25181.34251095  .00000325  00000-0  40705-4 0  9994
2 48602  53.0537 169.4525 0001292  91.7929 268.3208 15.06392858228635
Source of the keplerian elements: AFSPC